Location: El Carrer d�Abaix
(41.5797°N, 2.1791°E)
Time: 12:50:21
(UTC+00:00)

Cosmos 1943 Rocket - Pass Details

Date: 06 June 2020
Orbit: 810 x 845 km, 71.0° (Epoch: 11 July)

Event Time Altitude Azimuth Distance (km) Brightness Sun altitude
Rises 21:36:06 0° 232° (SW) 3,338 5.3 -18.6°
Reaches altitude 10° 21:38:47 10° 243° (WSW) 2,415 4.6 -18.8°
Maximum altitude 21:43:38 30° 304° (NW) 1,434 4.0 -19.3°
Drops below altitude 10° 21:48:33 10° 5° (N) 2,448 5.4 -19.8°
Sets 21:51:19 0° 16° (NNE) 3,392 6.0 -20.0°
